Tracking 25198 objects as of 16-Jan-2022
HD Live streaming from Space Station
objects crossing your sky now

ORBCOMM FM 32

Track ORBCOMM FM 32 now!
10-day predictions
ORBCOMM FM 32 is classified as:


NORAD ID: 25982
Int'l Code: 1999-065C
Perigee: 787.6 km
Apogee: 795.0 km
Inclination: 45.0 °
Period: 100.5 minutes
Semi major axis: 7162 km
RCS: 0.8421 m2 (medium)
Launch date: December 4, 1999
Source: ORBCOMM (ORB)
Launch site: AIR FORCE EASTERN TEST RANGE (AFETR)
aabbcc
Your satellite tracking list
Your tracking list is empty




NASA's NSSDC Master Catalog

Two Line Element Set (TLE):
1 25982U 99065C   22016.23769822  .00000219  00000-0  13200-3 0  9996
2 25982  45.0161 214.0284 0005212 300.1610  59.8720 14.32267428155648
Source of the keplerian elements: AFSPC